Kincheloe, MI

11:21 AM EDT on August 28, 2016 (GMT -0400)
Chippewa County International

Weather History for KCIU - May, 2013

Change the Weather History Date:

Friday, May 10, 2013

  Actual Average Record
Temperature  
Mean Temperature 38 °F -  
Max Temperature 44 °F 61 °F 79 °F (1993)
Min Temperature 33 °F 36 °F 19 °F (1983)
Degree Days  
Heating Degree Days 26    
Moisture  
Dew Point 34 °F    
Average Humidity 84    
Maximum Humidity 100    
Minimum Humidity 61    
Precipitation  
Precipitation 0.21 in - - ()
Sea Level Pressure  
Sea Level Pressure 30.02 in    
Wind  
Wind Speed 11 mph (NE)    
Max Wind Speed 16 mph    
Max Gust Speed 22 mph    
Visibility 10 miles    
Events      
Averages and records for this station are not official NWS values.
T = Trace of Precipitation, MM = Missing Value Source: NWS Daily Summary

Daily Weather History Graph

Daily Weather History Graph

Search for Another Location

Airport or City:

Trip Planner

Search our weather history database for the weather conditions in past years. The results will help you decide how hot, cold, wet, or windy it might be!

Date:

Astronomy

May. 10, 2013 Rise Set
Actual Time 6:10 AM EDT 8:58 PM EDT
Civil Twilight 5:36 AM EDT 9:33 PM EDT
Nautical Twilight 4:52 AM EDT 10:17 PM EDT
Astronomical Twilight 4:00 AM EDT 11:09 PM EDT
Moon 6:34 AM EDT (5/10) 9:48 PM EDT (5/10)
Length of Visible Light 15h 56m
Length of Day
14h 47m
New Moon, 0% of the Moon is Illuminated
May 10
New Moon
May 18
First Quarter
May 25
Full
May 31
Last Quarter
Jun 8
New

Hourly Weather History & Observations

Time (EDT) Temp. Windchill Dew Point Humidity Pressure Visibility Wind Dir Wind Speed Gust Speed Precip Events Conditions
12:15 AM 41.0 °F 33.5 °F 37.4 °F 87% 30.08 in 10.0 mi NNE 13.8 mph 19.6 mph N/A   Overcast
12:35 AM 39.2 °F 32.0 °F 37.4 °F 93% 30.09 in 10.0 mi NNE 11.5 mph - N/A   Overcast
12:55 AM 39.2 °F 31.2 °F 37.4 °F 93% 30.09 in 10.0 mi NNE 13.8 mph - 0.01 in   Overcast
1:15 AM 39.2 °F 32.0 °F 37.4 °F 93% 30.09 in 10.0 mi NNE 11.5 mph 17.3 mph N/A   Overcast
1:35 AM 39.2 °F 32.0 °F 37.4 °F 93% 30.09 in 10.0 mi NNE 11.5 mph 17.3 mph N/A   Overcast
1:55 AM 37.4 °F 28.9 °F 37.4 °F 100% 30.09 in 10.0 mi NNE 13.8 mph 19.6 mph N/A   Overcast
2:15 AM 37.4 °F 28.2 °F 37.4 °F 100% 30.08 in 10.0 mi NNE 16.1 mph 20.7 mph 0.01 in   Overcast
2:35 AM 37.4 °F 28.9 °F 35.6 °F 93% 30.08 in 10.0 mi NNE 13.8 mph - 0.02 in   Overcast
2:55 AM 37.4 °F 28.9 °F 35.6 °F 93% 30.08 in 10.0 mi NNE 13.8 mph - 0.03 in   Overcast
3:15 AM 35.6 °F 26.6 °F 35.6 °F 100% 30.08 in 10.0 mi NE 13.8 mph - 0.01 in   Overcast
3:35 AM 35.6 °F 28.0 °F 35.6 °F 100% 30.08 in 10.0 mi NNE 10.4 mph - 0.03 in   Overcast
3:55 AM 35.6 °F 27.1 °F 33.8 °F 93% 30.07 in 9.0 mi NE 12.7 mph - 0.05 in   Overcast
4:15 AM 35.6 °F 26.6 °F 33.8 °F 93% 30.07 in 10.0 mi NE 13.8 mph 18.4 mph 0.01 in   Overcast
4:35 AM 35.6 °F 27.5 °F 33.8 °F 93% 30.07 in 10.0 mi NE 11.5 mph 17.3 mph 0.02 in   Overcast
4:55 AM 35.6 °F 28.6 °F 35.6 °F 100% 30.07 in 9.0 mi NE 9.2 mph - 0.04 in   Overcast
5:15 AM 35.6 °F 29.2 °F 33.8 °F 93% 30.06 in 8.0 mi NE 8.1 mph - 0.02 in   Overcast
5:35 AM 35.6 °F 27.5 °F 35.6 °F 100% 30.06 in 10.0 mi NE 11.5 mph - 0.03 in   Overcast
5:55 AM 35.6 °F 26.6 °F 35.6 °F 100% 30.05 in 10.0 mi NE 13.8 mph - 0.04 in   Overcast
6:15 AM 35.6 °F 27.5 °F 33.8 °F 93% 30.05 in 10.0 mi NE 11.5 mph - 0.01 in   Overcast
6:35 AM 35.6 °F 28.0 °F 33.8 °F 93% 30.05 in 10.0 mi NE 10.4 mph - 0.01 in   Overcast
6:55 AM 33.8 °F 25.8 °F 33.8 °F 100% 30.05 in 10.0 mi NE 10.4 mph - 0.02 in   Overcast
7:15 AM 35.6 °F 27.5 °F 33.8 °F 93% 30.05 in 10.0 mi NE 11.5 mph - N/A   Overcast
7:35 AM 35.6 °F 27.1 °F 33.8 °F 93% 30.05 in 10.0 mi NNE 12.7 mph 17.3 mph 0.01 in   Overcast
7:55 AM 33.8 °F 24.3 °F 32.0 °F 93% 30.04 in 9.0 mi NE 13.8 mph 21.9 mph N/A   Overcast
8:15 AM 33.8 °F 25.8 °F 33.8 °F 100% 30.04 in 10.0 mi NNE 10.4 mph - 0.01 in   Overcast
8:35 AM 33.8 °F 24.3 °F 33.8 °F 100% 30.04 in 10.0 mi NE 13.8 mph 19.6 mph 0.01 in   Overcast
8:55 AM 33.8 °F 23.9 °F 33.8 °F 100% 30.04 in 10.0 mi NE 15.0 mph - N/A   Overcast
9:15 AM 33.8 °F 24.8 °F 33.8 °F 100% 30.04 in 10.0 mi NNE 12.7 mph - N/A   Overcast
9:35 AM 33.8 °F 27.0 °F 33.8 °F 100% 30.04 in 10.0 mi NNE 8.1 mph - N/A   Overcast
9:55 AM 33.8 °F 26.4 °F 33.8 °F 100% 30.04 in 10.0 mi NNE 9.2 mph - N/A   Overcast
10:15 AM 35.6 °F 28.6 °F 32.0 °F 87% 30.05 in 10.0 mi North 9.2 mph - N/A   Overcast
10:35 AM 35.6 °F 28.0 °F 32.0 °F 87% 30.05 in 10.0 mi NNE 10.4 mph - N/A   Overcast
10:55 AM 35.6 °F 28.6 °F 32.0 °F 87% 30.04 in 10.0 mi NNE 9.2 mph - N/A   Overcast
11:15 AM 35.6 °F 29.2 °F 32.0 °F 87% 30.04 in 10.0 mi NE 8.1 mph - N/A   Overcast
11:35 AM 35.6 °F 28.0 °F 32.0 °F 87% 30.04 in 10.0 mi NE 10.4 mph 16.1 mph N/A   Overcast
11:55 AM 37.4 °F 29.3 °F 33.8 °F 87% 30.03 in 9.0 mi NNE 12.7 mph - N/A   Overcast
12:15 PM 37.4 °F 30.3 °F 33.8 °F 87% 30.03 in 10.0 mi NE 10.4 mph - N/A   Overcast
12:35 PM 37.4 °F 29.8 °F 33.8 °F 87% 30.03 in 10.0 mi NE 11.5 mph - N/A   Overcast
12:55 PM 39.2 °F 33.0 °F 33.8 °F 81% 30.03 in 10.0 mi NE 9.2 mph - N/A   Overcast
1:15 PM 39.2 °F 32.0 °F 33.8 °F 81% 30.03 in 10.0 mi NNE 11.5 mph - N/A   Overcast
1:35 PM 39.2 °F 31.6 °F 33.8 °F 81% 30.03 in 10.0 mi NNE 12.7 mph - N/A   Overcast
1:55 PM 41.0 °F 34.3 °F 33.8 °F 76% 30.02 in 10.0 mi NNE 11.5 mph 16.1 mph N/A   Overcast
2:15 PM 41.0 °F 34.7 °F 33.8 °F 76% 30.02 in 10.0 mi ENE 10.4 mph - N/A   Overcast
2:35 PM 42.8 °F 37.0 °F 33.8 °F 70% 30.02 in 10.0 mi NE 10.4 mph - N/A   Overcast
2:55 PM 42.8 °F 36.6 °F 35.6 °F 76% 30.02 in 10.0 mi ENE 11.5 mph - N/A   Overcast
3:15 PM 42.8 °F 37.5 °F 35.6 °F 76% 30.01 in 10.0 mi NE 9.2 mph 18.4 mph N/A   Overcast
3:35 PM 42.8 °F 37.5 °F 35.6 °F 76% 30.00 in 10.0 mi NNE 9.2 mph - N/A   Overcast
3:55 PM 44.6 °F 39.7 °F 35.6 °F 71% 30.00 in 10.0 mi NNE 9.2 mph - N/A   Overcast
4:15 PM 44.6 °F 39.2 °F 35.6 °F 71% 29.99 in 10.0 mi NNE 10.4 mph - N/A   Overcast
4:35 PM 44.6 °F 38.4 °F 35.6 °F 71% 29.99 in 10.0 mi NNE 12.7 mph - N/A   Overcast
4:55 PM 44.6 °F 39.7 °F 35.6 °F 71% 29.99 in 10.0 mi NNE 9.2 mph 16.1 mph N/A   Overcast
5:15 PM 44.6 °F 38.4 °F 35.6 °F 71% 29.99 in 10.0 mi NNE 12.7 mph - N/A   Overcast
5:35 PM 44.6 °F 40.2 °F 35.6 °F 71% 29.99 in 10.0 mi NE 8.1 mph - N/A   Overcast
5:55 PM 44.6 °F 39.2 °F 33.8 °F 66% 29.98 in 10.0 mi NE 10.4 mph - N/A   Overcast
6:15 PM 44.6 °F 39.2 °F 33.8 °F 66% 29.98 in 10.0 mi ENE 10.4 mph - N/A   Overcast
6:35 PM 44.6 °F 40.7 °F 33.8 °F 66% 29.98 in 10.0 mi NE 6.9 mph - N/A   Overcast
6:55 PM 44.6 °F 40.7 °F 32.0 °F 61% 29.97 in 10.0 mi East 6.9 mph - N/A   Overcast
7:15 PM 44.6 °F 42.2 °F 32.0 °F 61% 29.96 in 10.0 mi East 4.6 mph - N/A   Overcast
7:35 PM 44.6 °F 42.2 °F 32.0 °F 61% 29.95 in 10.0 mi East 4.6 mph - N/A   Overcast
7:55 PM 44.6 °F 42.2 °F 32.0 °F 61% 29.95 in 10.0 mi East 4.6 mph - N/A   Overcast
8:15 PM 44.6 °F - 32.0 °F 61% 29.95 in 10.0 mi Calm Calm - N/A   Overcast
8:35 PM 44.6 °F - 32.0 °F 61% 29.95 in 10.0 mi Calm Calm - N/A   Overcast
8:55 PM 42.8 °F - 33.8 °F 70% 29.94 in 10.0 mi Calm Calm - N/A   Overcast
9:15 PM 42.8 °F - 33.8 °F 70% 29.94 in 10.0 mi Calm Calm - N/A   Scattered Clouds
9:35 PM 41.0 °F 39.0 °F 33.8 °F 76% 29.94 in 10.0 mi North 3.5 mph - N/A   Clear
9:55 PM 39.2 °F 37.0 °F 33.8 °F 81% 29.94 in 10.0 mi NNW 3.5 mph - N/A   Partly Cloudy
10:15 PM 41.0 °F 39.0 °F 33.8 °F 76% 29.95 in 10.0 mi NNW 3.5 mph - N/A   Mostly Cloudy
10:35 PM 41.0 °F 38.0 °F 33.8 °F 76% 29.95 in 10.0 mi NW 4.6 mph - N/A   Overcast
10:55 PM 41.0 °F 39.0 °F 33.8 °F 76% 29.95 in 10.0 mi NW 3.5 mph - N/A   Overcast
11:15 PM 41.0 °F 38.0 °F 35.6 °F 81% 29.94 in 10.0 mi NW 4.6 mph - N/A   Overcast
11:35 PM 41.0 °F - 35.6 °F 81% 29.94 in 10.0 mi Calm Calm - N/A   Overcast
11:55 PM 41.0 °F - 35.6 °F 81% 29.93 in 10.0 mi Calm Calm - N/A   Overcast